This demonstration page uses our WeatherBlox Daily Observations layout. Learn more.

Left ArrowRight Arrow

38.88101, -77.10428

Hourly Observations for June 3, 2021

Temp ( °F °C ) Dew Point ( °F °C ) Humidity (%) Winds ( mph kmh ) Pressure ( in mb ) Visibility ( mi km ) Precip ( " mm )
12:15 am 00:15 Cloudy 69 20.6 60 15.6 73 73 S 10 17 30.12 1020 10 16 N/A
12:52 am 00:52 Cloudy 69 20.6 61 16.1 76 76 SSE 8 13 30.10 1019 10 16 N/A
1:52 am 01:52 Cloudy with Light Rain 68 20 62 16.7 81 81 S 7 11 30.09 1019 10 16 0.00 0.00
2:32 am 02:32 Cloudy with Light Rain 67 19.4 63 17.2 87 87 SSE 5 7 30.08 1019 5 8 0.03 0.76
2:52 am 02:52 Cloudy with Light Rain 67 19.4 64 17.8 91 91 S 6 9 30.07 1018 5 8 0.05 1.27
3:52 am 03:52 Cloudy with Light Rain 68 20 64 17.8 87 87 SSE 7 11 30.05 1018 6 10 0.00 0.00
4:21 am 04:21 Cloudy 67 19.4 64 17.8 91 91 SSE 7 11 30.05 1018 10 16 0.01 0.25
4:52 am 04:52 Cloudy 67 19.4 64 17.8 91 91 S 8 13 30.05 1018 10 16 0.02 0.51
5:19 am 05:19 Cloudy 67 19.4 64 17.8 91 91 S 7 11 30.05 1018 7 11 N/A
5:52 am 05:52 Cloudy 68 20 64 17.8 87 87 SSE 9 15 30.05 1018 10 16 N/A
6:52 am 06:52 Cloudy with Mist and Fog 68 20 65 18.3 90 90 S 8 13 30.04 1017 3 5 N/A
7:00 am 07:00 Cloudy with Mist and Fog 68 20 65 18.3 90 90 S 8 13 30.04 1017 2 3 N/A
7:17 am 07:17 Cloudy with Mist and Fog 68 20 66 18.9 93 93 S 8 13 30.05 1018 4 6 N/A
7:52 am 07:52 Cloudy with Mist and Fog 68 20 66 18.9 93 93 SSW 5 7 30.04 1017 6 10 N/A
8:11 am 08:11 Cloudy 69 20.6 66 18.9 90 90 S 5 7 30.05 1018 7 11 N/A
8:52 am 08:52 Cloudy 70 21.1 67 19.4 90 90 S 7 11 30.05 1018 8 13 N/A
9:11 am 09:11 Cloudy 71 21.7 67 19.4 87 87 S 6 9 30.06 1018 9 14 N/A
9:52 am 09:52 Cloudy 72 22.2 68 20 87 87 S 9 15 30.05 1018 10 16 N/A
10:10 am 10:10 Cloudy 72 22.2 68 20 87 87 S 8 13 30.04 1017 10 16 N/A
10:52 am 10:52 Cloudy 75 23.9 68 20 79 79 SSW 13 20 30.04 1017 10 16 N/A
11:03 am 11:03 Cloudy 76 24.4 69 20.6 79 79 S 8 13 30.04 1017 10 16 N/A
11:52 am 11:52 Mostly Cloudy 77 25 69 20.6 77 77 S 10 17 30.02 1017 10 16 N/A
12:52 pm 12:52 Cloudy 80 26.7 68 20 67 67 S 12 19 30.01 1016 10 16 N/A
1:52 pm 13:52 Cloudy 81 27.2 69 20.6 67 67 S 16 26 29.98 1015 9 14 N/A
2:52 pm 14:52 Cloudy 82 27.8 68 20 63 63 S 13 20 29.96 1015 10 16 N/A
3:52 pm 15:52 Mostly Cloudy 82 27.8 68 20 63 63 S 14 22 29.95 1014 10 16 N/A
4:52 pm 16:52 Mostly Cloudy 82 27.8 67 19.4 60 60 S 18 30 29.93 1013 10 16 N/A
5:52 pm 17:52 Mostly Cloudy 79 26.1 67 19.4 67 67 S 15 24 29.95 1014 10 16 N/A
6:20 pm 18:20 Mostly Cloudy with Nearby Thunderstorms 77 25 68 20 74 74 S 12 19 29.94 1014 10 16 0.00 0.00
6:34 pm 18:34 Mostly Cloudy with Light Rain 77 25 69 20.6 77 77 S 12 19 29.95 1014 8 13 0.00 0.00
6:52 pm 18:52 Mostly Cloudy with Light Rain 76 24.4 70 21.1 82 82 S 13 20 29.94 1014 9 14 0.01 0.25
7:15 pm 19:15 Mostly Cloudy with Thunderstorms 76 24.4 70 21.1 82 82 SSE 12 19 29.92 1013 8 13 0.02 0.51
7:34 pm 19:34 Mostly Cloudy with Nearby Thunderstorms 73 22.8 66 18.9 79 79 SSW 16 26 29.94 1014 10 16 0.02 0.51
7:44 pm 19:44 Mostly Cloudy 72 22.2 65 18.3 79 79 S 17 28 29.95 1014 10 16 0.02 0.51
7:52 pm 19:52 Mostly Cloudy 72 22.2 65 18.3 79 79 SSW 16 26 29.95 1014 10 16 0.02 0.51
8:52 pm 20:52 Mostly Cloudy 69 20.6 64 17.8 84 84 SW 9 15 29.96 1015 10 16 N/A
9:52 pm 21:52 Mostly Cloudy 69 20.6 65 18.3 87 87 S 8 13 29.98 1015 10 16 N/A
10:52 pm 22:52 Cloudy with Light Rain 70 21.1 67 19.4 90 90 S 15 24 29.97 1015 10 16 0.00 0.00
11:45 pm 23:45 Cloudy 71 21.7 67 19.4 87 87 SSW 10 17 29.98 1015 10 16 0.00 0.00
11:52 pm 23:52 Cloudy 71 21.7 67 19.4 87 87 SSW 12 19 29.97 1015 10 16 0.00 0.00

Powered by AerisWeather